DW0494 Weather Reports


Display with metric or nautical units.
time (UTC)temp
F
wind
direction
speed
MPH
gust
MPH
rain 1hr
in
rain 24hr
in
rain mn
in
humidity
%
barometer
mb
20260902141403 93 213 1.0 5.0 0.00 0.05 0.05 44 1018.3
20260902140903 94 208 2.0 7.0 0.00 0.05 0.05 44 1018.5
20260902140403 94 209 3.0 7.0 0.00 0.05 0.05 46 1018.6
20260902135903 95 206 3.0 7.0 0.00 0.05 0.05 42 1018.6
20260902135404 95 229 2.0 7.0 0.00 0.05 0.05 42 1018.7
20260902134903 96 211 1.0 5.0 0.00 0.05 0.05 43 1018.8
20260902134403 95 189 2.0 8.0 0.00 0.05 0.05 43 1018.9
20260902133903 95 117 2.0 8.0 0.00 0.05 0.05 44 1019.0
20260902132903 95 129 1.0 9.0 0.00 0.05 0.05 45 1019.0
20260902132403 95 221 4.0 9.0 0.00 0.05 0.05 45 1019.1
20260902130903 96 215 5.0 10.0 0.00 0.05 0.05 44 1019.2
20260902130403 95 202 3.0 10.0 0.00 0.05 0.05 46 1019.2
20260902125904 95 210 5.0 10.0 0.00 0.05 0.05 45 1019.2
20260902125403 95 222 4.0 8.0 0.00 0.05 0.05 45 1019.2
20260902124903 95 213 3.0 10.0 0.00 0.05 0.05 46 1019.4
20260902123904 94 214 3.0 10.0 0.00 0.05 0.05 48 1019.5
20260902123404 94 232 3.0 10.0 0.00 0.05 0.05 48 1019.5
20260902122903 94 212 3.0 10.0 0.00 0.05 0.05 50 1019.7
20260902122403 94 243 2.0 10.0 0.00 0.05 0.05 50 1019.8
20260902121404 94 222 2.0 8.0 0.00 0.05 0.05 51 1019.9
20260902120904 93 224 2.0 8.0 0.00 0.05 0.05 54 1020.0
20260902120404 93 243 3.0 8.0 0.00 0.05 0.05 53 1020.1
20260902115904 94 209 2.0 6.0 0.00 0.05 0.05 53 1020.3
20260902115404 94 216 2.0 6.0 0.00 0.05 0.05 52 1020.4
20260902114904 93 190 2.0 6.0 0.00 0.05 0.05 55 1020.5
20260902113903 93 218 2.0 6.0 0.00 0.05 0.05 56 1020.7
20260902113403 93 226 2.0 6.0 0.00 0.05 0.05 56 1020.7
20260902112904 93 203 3.0 7.0 0.00 0.05 0.05 57 1020.8
20260902112403 93 193 4.0 7.0 0.00 0.05 0.05 56 1020.9
20260902111903 93 250 3.0 6.0 0.00 0.05 0.05 56 1020.9
20260902111404 93 204 2.0 7.0 0.00 0.05 0.05 56 1020.9
20260902110904 93 213 3.0 8.0 0.00 0.05 0.05 57 1021.0
20260902110404 93 213 3.0 8.0 0.00 0.05 0.05 56 1021.0
20260902105904 92 200 3.0 8.0 0.00 0.05 0.05 57 1021.1
20260902105404 92 234 4.0 8.0 0.00 0.05 0.05 55 1021.1
20260902104904 93 235 3.0 8.0 0.00 0.05 0.05 53 1021.2
20260902104404 92 216 2.0 9.0 0.00 0.05 0.05 54 1021.2
20260902103904 93 206 3.0 9.0 0.00 0.05 0.05 55 1021.2
20260902103403 94 219 4.0 9.0 0.00 0.05 0.05 53 1021.2
20260902102904 93 205 2.0 6.0 0.00 0.05 0.05 56 1021.2
20260902101904 93 212 4.0 9.0 0.00 0.05 0.05 55 1021.2
20260902100404 94 208 1.0 5.0 0.00 0.05 0.05 53 1021.2
20260902095404 93 257 1.0 5.0 0.00 0.05 0.05 52 1021.3
20260902094904 93 205 2.0 6.0 0.00 0.05 0.05 54 1021.3
20260902093904 92 219 2.0 6.0 0.00 0.05 0.05 54 1021.4
20260902093403 92 172 2.0 6.0 0.00 0.05 0.05 55 1021.4
20260902092403 92 115 1.0 7.0 0.00 0.05 0.05 56 1021.5
20260902091903 91 187 3.0 7.0 0.00 0.05 0.05 56 1021.5
20260902091403 91 199 2.0 5.0 0.00 0.05 0.05 61 1021.6
20260902090903 91 193 1.0 5.0 0.00 0.05 0.05 62 1021.5
20260902090403 91 223 2.0 5.0 0.00 0.05 0.05 63 1021.6
20260902084403 89 227 2.0 3.0 0.00 0.05 0.05 66 1021.6
20260902083904 89 168 1.0 3.0 0.00 0.05 0.05 67 1021.5
20260902083404 89 202 0.0 3.0 0.00 0.05 0.05 68 1021.5
20260902082904 89 223 1.0 5.0 0.00 0.05 0.05 67 1021.5
20260902082404 89 202 2.0 5.0 0.00 0.05 0.05 68 1021.5
20260902081403 88 147 2.0 5.0 0.00 0.05 0.05 68 1021.5
20260902080903 88 230 1.0 3.0 0.00 0.05 0.05 69 1021.4
20260902080403 88 144 0.0 3.0 0.00 0.05 0.05 69 1021.4
20260902075903 88 188 2.0 3.0 0.00 0.05 0.05 69 1021.5
20260902075404 88 181 1.0 3.0 0.00 0.05 0.05 70 1021.5
20260902074903 87 208 2.0 3.0 0.00 0.05 0.05 70 1021.5
20260902073903 88 234 0.0 1.0 0.00 0.05 0.05 68 1021.4
20260902073404 80 221 0.0 1.0 0.00 0.05 0.05 89 1021.4
20260902072904 73 0 0.0 0.0 0.00 0.05 0.05 90 1021.3
20260902072404 73 0 0.0 0.0 0.00 0.05 0.05 90 1021.3
20260902071903 73 0 0.0 0.0 0.00 0.05 0.05 90 1021.4
20260902071404 73 0 0.0 0.0 0.00 0.05 0.05 90 1021.4
20260902070903 73 0 0.0 0.0 0.00 0.05 0.05 90 1021.3
20260902070404 73 0 0.0 0.0 0.00 0.05 0.05 90 1021.3
20260902065904 73 0 0.0 0.0 0.00 0.05 0.05 90 1021.3
20260902064904 73 0 0.0 0.0 0.00 0.05 0.05 90 1021.3
20260902064404 73 0 0.0 0.0 0.00 0.05 0.05 90 1021.2
20260902063904 73 0 0.0 0.0 0.00 0.05 0.05 90 1021.2
20260902063404 73 0 0.0 0.0 0.00 0.05 0.05 90 1021.2
20260902062903 73 0 0.0 0.0 0.00 0.05 0.05 90 1021.3
20260902062404 73 0 0.0 0.0 0.00 0.05 0.05 90 1021.3
20260902061904 73 0 0.0 0.0 0.00 0.05 0.05 90 1021.3
20260902061405 73 0 0.0 0.0 0.00 0.05 0.05 90 1021.2
20260902060904 73 0 0.0 0.0 0.00 0.05 0.05 90 1021.2
20260902060404 73 0 0.0 0.0 0.00 0.05 0.05 90 1021.3
20260902055904 73 0 0.0 0.0 0.00 0.05 0.05 90 1021.2
20260902055403 73 0 0.0 0.0 0.00 0.05 0.05 90 1021.2
20260902054904 73 0 0.0 0.0 0.00 0.05 0.05 90 1021.1
20260902053904 73 0 0.0 0.0 0.00 0.05 0.05 90 1021.2
20260902053404 73 0 0.0 0.0 0.00 0.05 0.05 90 1021.3
20260902052404 73 0 0.0 0.0 0.00 0.05 0.05 90 1021.2
20260902051904 73 0 0.0 0.0 0.00 0.05 0.05 90 1021.2
20260902050904 73 0 0.0 0.0 0.00 0.05 0.05 90 1021.1
20260902050404 73 0 0.0 0.0 0.00 0.05 0.05 90 1021.1
20260902045904 73 0 0.0 0.0 0.00 0.05 0.05 90 1021.1
20260902044904 73 0 0.0 0.0 0.00 0.05 0.05 90 1021.1
20260902044404 73 0 0.0 0.0 0.00 0.05 0.05 90 1021.1
20260902043903 73 0 0.0 0.0 0.00 0.05 0.05 90 1021.0
20260902043403 73 0 0.0 0.0 0.00 0.05 0.05 90 1020.9
20260902042903 73 0 0.0 0.0 0.00 0.05 0.05 90 1020.9
20260902042403 73 0 0.0 0.0 0.00 0.05 0.05 90 1020.8
20260902041904 73 0 0.0 0.0 0.00 0.05 0.05 90 1020.9
20260902040904 73 0 0.0 0.0 0.00 0.05 0.05 90 1020.9
20260902040404 73 0 0.0 0.0 0.00 0.05 0.05 90 1020.8
20260902035903 73 0 0.0 0.0 0.00 0.05 0.05 90 1020.7
20260902035404 73 0 0.0 0.0 0.00 0.05 0.05 90 1020.8
20260902034904 73 0 0.0 0.0 0.00 0.05 0.05 90 1020.7
20260902034404 73 0 0.0 0.0 0.00 0.05 0.05 90 1020.7
20260902033903 73 0 0.0 0.0 0.00 0.05 0.05 90 1020.6
20260902033403 73 2 0.0 0.0 0.00 0.05 0.05 90 1020.5
20260902032904 73 44 0.0 1.0 0.00 0.05 0.05 90 1020.5
20260902032404 73 44 0.0 1.0 0.00 0.05 0.05 90 1020.6
20260902031904 73 2 0.0 2.0 0.00 0.05 0.05 90 1020.5
20260902031404 73 356 0.0 3.0 0.00 0.05 0.05 90 1020.5
20260902030904 73 23 1.0 3.0 0.00 0.05 0.05 90 1020.5
20260902025904 73 16 1.0 3.0 0.00 0.05 0.05 90 1020.4
20260902025404 73 26 1.0 3.0 0.00 0.05 0.05 91 1020.5
20260902024904 73 11 0.0 1.0 0.00 0.05 0.05 90 1020.4
20260902024404 73 43 0.0 1.0 0.00 0.05 0.05 91 1020.4
20260902023403 73 18 0.0 2.0 0.01 0.05 0.05 90 1020.3
20260902022904 73 20 0.0 1.0 0.05 0.05 0.05 90 1020.4
20260902022404 73 21 0.0 2.0 0.05 0.05 0.05 90 1020.3
20260902021904 73 21 1.0 5.0 0.05 0.05 0.05 90 1020.3
20260902021404 73 298 0.0 5.0 0.05 0.05 0.05 90 1020.4
20260902015903 74 213 0.0 2.0 0.05 0.05 0.05 89 1020.1
20260902015404 74 137 0.0 6.0 0.05 0.05 0.05 88 1020.0
20260902014904 74 109 2.0 10.0 0.05 0.05 0.05 88 1020.0
20260902013903 75 38 5.0 12.0 0.05 0.05 0.05 86 1019.9
20260902013404 76 39 6.0 12.0 0.04 0.04 0.04 85 1019.8
20260902012404 78 26 1.0 6.0 0.00 0.00 0.00 77 1020.0
20260902011904 78 49 0.0 6.0 0.00 0.00 0.00 77 1020.0
20260902010903 78 55 0.0 3.0 0.00 0.00 0.00 78 1020.0
20260902010403 78 60 1.0 5.0 0.00 0.00 0.00 79 1020.1
20260902005904 78 23 2.0 5.0 0.00 0.00 0.00 79 1020.2
20260902004904 78 9 0.0 1.0 0.00 0.00 0.00 79 1020.2
20260902003904 77 240 0.0 0.0 0.00 0.00 0.00 80 1020.0
20260902003404 77 240 0.0 0.0 0.00 0.00 0.00 80 1019.9
20260902002404 77 255 0.0 1.0 0.00 0.00 0.00 80 1020.0
20260902001903 77 352 0.0 0.0 0.00 0.00 0.00 79 1020.0
20260902001403 77 352 0.0 0.0 0.00 0.00 0.00 78 1020.0
20260902000903 77 352 0.0 0.0 0.00 0.00 0.00 78 1020.0
20260902000403 77 352 0.0 0.0 0.00 0.00 0.00 78 1019.9
20260901235904 77 352 0.0 0.0 0.00 0.00 0.00 77 1019.9
20260901235404 78 352 0.0 0.0 0.00 0.00 0.00 77 1019.8
20260901234404 78 352 0.0 0.0 0.00 0.00 0.00 77 1019.8
20260901233903 78 352 0.0 2.0 0.00 0.00 0.00 77 1019.7
20260901233403 78 352 0.0 2.0 0.00 0.00 0.00 78 1019.7
20260901232904 78 321 0.0 0.0 0.00 0.00 0.00 78 1019.6
20260901231904 78 316 0.0 0.0 0.00 0.00 0.00 78 1019.6
20260901231404 78 316 0.0 0.0 0.00 0.00 0.00 78 1019.6
20260901230904 78 333 0.0 0.0 0.00 0.00 0.00 78 1019.6
20260901225403 78 333 0.0 0.0 0.00 0.00 0.00 79 1019.7
20260901224404 78 17 0.0 0.0 0.00 0.00 0.00 79 1019.6
20260901223904 78 17 0.0 0.0 0.00 0.00 0.00 79 1019.5
20260901223404 78 17 0.0 0.0 0.00 0.00 0.00 79 1019.5
20260901222904 78 17 0.0 0.0 0.00 0.00 0.00 79 1019.5
20260901221903 78 17 0.0 1.0 0.00 0.00 0.00 79 1019.5
20260901221404 78 17 0.0 1.0 0.00 0.00 0.00 78 1019.6
20260901220903 78 17 0.0 1.0 0.00 0.00 0.00 78 1019.5
20260901215903 78 16 0.0 1.0 0.00 0.00 0.00 78 1019.5
20260901215403 78 17 0.0 1.0 0.00 0.00 0.00 77 1019.6
20260901214404 78 35 0.0 1.0 0.00 0.00 0.00 77 1019.6
20260901213903 78 38 0.0 0.0 0.00 0.00 0.00 77 1019.6
20260901213404 78 38 0.0 0.0 0.00 0.00 0.00 77 1019.6
20260901212904 78 38 0.0 0.0 0.00 0.00 0.00 76 1019.5
20260901212404 78 38 0.0 0.0 0.00 0.00 0.00 76 1019.5
20260901211904 78 38 0.0 0.0 0.00 0.00 0.00 75 1019.4
20260901211404 78 38 0.0 0.0 0.00 0.00 0.00 75 1019.5
20260901210404 78 38 0.0 0.0 0.00 0.00 0.00 74 1019.4
20260901205903 78 38 0.0 0.0 0.00 0.00 0.00 74 1019.4
20260901205403 78 38 0.0 0.0 0.00 0.00 0.00 74 1019.3
20260901204904 78 38 0.0 0.0 0.00 0.00 0.00 74 1019.4
20260901203904 78 38 0.0 0.0 0.00 0.00 0.00 73 1019.2
20260901203404 79 38 0.0 0.0 0.00 0.00 0.00 73 1019.2
20260901202903 79 38 0.0 0.0 0.00 0.00 0.00 73 1019.2
20260901202403 79 38 0.0 0.0 0.00 0.00 0.00 73 1019.2
20260901201904 79 38 0.0 0.0 0.00 0.00 0.00 73 1019.2
20260901201405 79 38 0.0 0.0 0.00 0.00 0.00 72 1019.1
20260901200403 79 38 0.0 0.0 0.00 0.00 0.00 73 1019.2
20260901195903 79 38 0.0 0.0 0.00 0.00 0.00 73 1019.3
20260901195403 79 38 0.0 0.0 0.00 0.00 0.00 73 1019.2
20260901194904 79 38 0.0 0.0 0.00 0.00 0.00 73 1019.1
20260901194404 79 38 0.0 0.0 0.00 0.00 0.00 72 1019.1
20260901193904 79 38 0.0 0.0 0.00 0.00 0.00 72 1019.1
20260901193403 79 38 0.0 0.0 0.00 0.00 0.00 72 1019.1
20260901192903 79 38 0.0 0.0 0.00 0.00 0.00 73 1019.1
20260901192403 79 38 0.0 0.0 0.00 0.00 0.00 72 1019.1
20260901191903 79 38 0.0 1.0 0.00 0.00 0.00 72 1019.1
20260901191404 79 38 0.0 1.0 0.00 0.00 0.00 72 1019.1
20260901190904 79 38 0.0 1.0 0.00 0.00 0.00 72 1019.0
20260901185904 79 62 0.0 1.0 0.00 0.00 0.00 73 1018.9
20260901185404 79 68 0.0 1.0 0.00 0.00 0.00 74 1018.9
20260901184903 80 69 1.0 1.0 0.00 0.00 0.00 73 1018.9
20260901184404 80 69 0.0 2.0 0.00 0.00 0.00 73 1018.8
20260901183904 80 69 0.0 2.0 0.00 0.00 0.00 73 1018.6
20260901183403 80 44 1.0 2.0 0.00 0.00 0.00 73 1018.4
20260901182903 80 69 0.0 2.0 0.00 0.00 0.00 73 1018.4
20260901182403 80 69 1.0 2.0 0.00 0.00 0.00 73 1018.4
20260901181903 80 88 0.0 1.0 0.00 0.00 0.00 73 1018.3
20260901181404 80 89 0.0 1.0 0.00 0.00 0.00 72 1018.1
20260901180904 80 89 0.0 1.0 0.00 0.00 0.00 72 1017.9
20260901180404 80 86 0.0 0.0 0.00 0.00 0.00 72 1017.9
20260901175904 80 86 0.0 0.0 0.00 0.00 0.00 71 1017.8
20260901175404 80 86 0.0 0.0 0.00 0.00 0.00 71 1017.8
20260901174904 80 88 0.0 1.0 0.00 0.00 0.00 71 1017.7
20260901174403 81 88 0.0 1.0 0.00 0.00 0.00 71 1017.7
20260901173903 81 88 0.0 0.0 0.00 0.00 0.00 71 1017.6
20260901173403 81 88 0.0 0.0 0.00 0.00 0.00 70 1017.4
20260901172903 81 88 0.0 1.0 0.00 0.00 0.00 70 1017.5
20260901172404 82 88 0.0 1.0 0.00 0.00 0.00 70 1017.5
20260901171904 82 90 0.0 2.0 0.00 0.00 0.00 70 1017.7
20260901171404 82 91 0.0 3.0 0.00 0.00 0.00 69 1017.6
20260901170903 82 50 0.0 3.0 0.00 0.00 0.00 69 1017.7
20260901165904 83 215 0.0 2.0 0.00 0.00 0.00 67 1017.7
20260901165404 84 175 0.0 3.0 0.00 0.00 0.00 67 1017.8
20260901164904 84 136 0.0 3.0 0.00 0.00 0.00 66 1017.8
20260901164403 85 165 0.0 3.0 0.00 0.00 0.00 65 1017.8
20260901163903 85 208 0.0 2.0 0.00 0.00 0.00 65 1017.6
20260901163403 86 120 0.0 2.0 0.00 0.00 0.00 65 1017.6
20260901162904 86 210 0.0 3.0 0.00 0.00 0.00 64 1017.7
20260901162403 86 222 2.0 7.0 0.00 0.00 0.00 64 1017.6
20260901161904 87 194 1.0 7.0 0.00 0.00 0.00 63 1017.5
20260901161403 87 209 2.0 7.0 0.00 0.00 0.00 62 1017.5
20260901160904 87 208 2.0 7.0 0.00 0.00 0.00 61 1017.5
20260901160403 88 213 2.0 7.0 0.00 0.00 0.00 60 1017.3
20260901154903 89 183 2.0 7.0 0.00 0.00 0.00 58 1017.3
20260901154403 89 178 2.0 7.0 0.00 0.00 0.00 58 1017.3
20260901153404 90 205 3.0 6.0 0.00 0.00 0.00 57 1017.3
20260901152904 90 208 3.0 6.0 0.00 0.00 0.00 58 1017.3
20260901152404 90 179 3.0 8.0 0.00 0.00 0.00 58 1017.3
20260901151905 90 208 3.0 8.0 0.00 0.00 0.00 58 1017.3
20260901151403 90 198 2.0 7.0 0.00 0.00 0.00 57 1017.4
20260901150904 91 193 3.0 7.0 0.00 0.00 0.00 57 1017.4
20260901150404 91 208 3.0 8.0 0.00 0.00 0.00 56 1017.3
20260901145903 91 210 3.0 8.0 0.00 0.00 0.00 55 1017.3
20260901144403 92 207 3.0 6.0 0.00 0.00 0.00 54 1017.3
20260901143903 92 196 3.0 6.0 0.00 0.00 0.00 53 1017.3
20260901143403 92 211 3.0 7.0 0.00 0.00 0.00 53 1017.3
20260901142903 92 191 1.0 7.0 0.00 0.00 0.00 54 1017.3
20260901141904 92 148 3.0 7.0 0.00 0.00 0.00 53 1017.3